Regional Weather Roundup
Issued by NWS

Home | Current Version | Previous Version | Graphics & Text | Print | Product List | Glossary On
Versions: 1 2 3 4 5 6 7 8 9 10 11 12 13 14 15 16 17 18 19 20 21 22 23 24 25 26 27 28 29 30 31 32 33 34 35 36 37 38 39 40 41 42 43 44 45 46 47 48 49 50
000
ASUS43 KOAX 272102
RWRNE

WEATHER ROUNDUP FOR NEBRASKA
NATIONAL WEATHER SERVICE OMAHA NE
300 PM CST THU NOV 27 2014

NOTES: SATELLITE DATA IS BEING USED TO AUGMENT CLOUD COVER ABOVE
       12000 FEET.
       "FAIR" INDICATES FEW OR NO CLOUDS BELOW 12,000 FEET WITH NO
       SIGNIFICANT WEATHER AND/OR OBSTRUCTIONS TO VISIBILITY.

  * THESE STATIONS DO NOT REPORT WEATHER SUCH AS RAIN...SNOW OR FOG.

NEZ001>004-019>022-054>056-272200-
NEBRASKA PANHANDLE

CITY           SKY/WX    TMP DP  RH WIND       PRES   REMARKS
SCOTTSBLUFF    MOSUNNY   39  31  72 SE3       30.00F
ALLIANCE       MOSUNNY   59  30  33 W16       29.98F
CHADRON        MOSUNNY  N/A N/A N/A W6        29.94F
SIDNEY         PTSUNNY   47  33  58 SW10      30.05F
$$

NEZ057>060-069>072-079>082-272200-
SOUTHWEST NEBRASKA

CITY           SKY/WX    TMP DP  RH WIND       PRES   REMARKS
NORTH PLATTE   SUNNY     49  23  36 S14       30.06F
IMPERIAL       PTSUNNY   62  30  29 SW7       30.05F
MCCOOK         SUNNY     53  26  35 SE10      30.08F
$$

NEZ005>010-023>029-035>040-094-272200-
NORTH CENTRAL NEBRASKA

CITY           SKY/WX    TMP DP  RH WIND       PRES   REMARKS
VALENTINE      MOSUNNY   42  23  46 SE13      30.01F
BROKEN BOW     MOSUNNY   43  22  43 S18       30.09F
ORD            MOSUNNY   39  19  44 S21       30.13F WCI  29
$$

NEZ041-046>049-061>064-073>077-083>087-272200-
SOUTH CENTRAL NEBRASKA

CITY           SKY/WX    TMP DP  RH WIND       PRES   REMARKS
GRAND ISLAND   SUNNY     34  17  50 S14       30.21F WCI  25
AURORA         SUNNY     35  15  45 S16G22    30.20F WCI  25
HASTINGS       MOSUNNY   40  18  41 S15G22    30.20F WCI  32
KEARNEY *      PTSUNNY   39  19  45 SE21G26   30.18F WCI  29
YORK           SUNNY     32  16  51 S17       30.24F WCI  21
$$

NEZ011>018-030>034-042>045-272200-
NORTHEAST NEBRASKA

CITY           SKY/WX    TMP DP  RH WIND       PRES   REMARKS
NORFOLK        PTSUNNY   23  14  68 SE17      30.24F WCI   9
BLAIR          PTSUNNY   23   7  50 E10       30.34F WCI  12
COLUMBUS *     PTSUNNY   28  12  50 SE14      30.28F WCI  17
TEKAMAH        PTSUNNY   21   6  52 SE13      30.37F WCI   9
$$

NEZ050>053-065>068-078-088>093-272200-
SOUTHEAST NEBRASKA

CITY           SKY/WX    TMP DP  RH WIND       PRES   REMARKS
LINCOLN        MOSUNNY   31  13  47 SE12      30.33F WCI  22
OMAHA EPPLEY   PTSUNNY   22   6  50 SE12      30.39F WCI  10
FALLS CITY     SUNNY     31  12  45 SE10      30.38F WCI  22
$$

NEZ044-045-051>053-067-272200-
OMAHA AREA

CITY           SKY/WX    TMP DP  RH WIND       PRES   REMARKS
OMAHA EPPLEY   PTSUNNY   22   6  50 SE12      30.39F WCI  10
BLAIR          PTSUNNY   23   7  50 E10       30.34F WCI  12
OFFUTT AFB     MOSUNNY   24   7  49 SE9       30.37F WCI  14
$$



USA.gov is the U.S. government's official web portal to all federal, state and local government web resources and services.